TimeCDT,TemperatureF,Dew PointF,Humidity,Sea Level PressureIn,VisibilityMPH,Wind Direction,Wind SpeedMPH,Gust SpeedMPH,PrecipitationIn,Events,Conditions,WindDirDegrees,DateUTC
12:38 AM,57.2,55.4,94,30.07,10.0,NNE,5.8,-,N/A,,Overcast,20,2012-10-07 05:38:00
12:53 AM,57.9,54.0,87,30.07,10.0,NNW,8.1,17.3,N/A,,Overcast,340,2012-10-07 05:53:00
1:53 AM,57.2,53.6,88,30.09,10.0,Variable,4.6,-,N/A,,Overcast,0,2012-10-07 06:53:00
2:53 AM,55.9,53.1,90,30.09,10.0,Variable,5.8,-,N/A,,Overcast,0,2012-10-07 07:53:00
3:53 AM,55.9,54.0,93,30.09,10.0,Calm,Calm,-,N/A,,Overcast,0,2012-10-07 08:53:00
4:53 AM,55.0,53.1,93,30.09,10.0,Variable,6.9,-,N/A,,Overcast,0,2012-10-07 09:53:00
5:53 AM,54.0,51.1,90,30.10,10.0,North,6.9,-,N/A,,Overcast,10,2012-10-07 10:53:00
6:53 AM,54.0,51.1,90,30.12,10.0,NNW,3.5,-,N/A,,Overcast,340,2012-10-07 11:53:00
7:53 AM,54.0,51.1,90,30.13,10.0,North,3.5,-,N/A,,Overcast,10,2012-10-07 12:53:00
8:42 AM,53.6,50.0,88,30.15,10.0,Variable,6.9,-,N/A,,Overcast,0,2012-10-07 13:42:00
8:53 AM,55.0,50.0,83,30.15,10.0,North,9.2,-,N/A,,Overcast,10,2012-10-07 13:53:00
9:53 AM,55.9,50.0,80,30.16,10.0,NNW,5.8,-,N/A,,Overcast,340,2012-10-07 14:53:00
10:31 AM,60.8,51.8,72,30.16,10.0,NNW,6.9,-,N/A,,Mostly Cloudy,340,2012-10-07 15:31:00
10:53 AM,60.1,51.1,72,30.15,10.0,NNE,5.8,-,N/A,,Mostly Cloudy,20,2012-10-07 15:53:00
11:53 AM,62.1,51.1,67,30.15,10.0,Variable,3.5,-,N/A,,Overcast,0,2012-10-07 16:53:00
12:53 PM,60.1,51.1,72,30.14,10.0,NNE,9.2,-,N/A,,Overcast,20,2012-10-07 17:53:00
1:53 PM,59.0,50.0,72,30.12,10.0,NNW,9.2,-,N/A,,Overcast,330,2012-10-07 18:53:00
2:38 PM,62.6,51.8,68,30.09,10.0,North,8.1,16.1,N/A,,Partly Cloudy,360,2012-10-07 19:38:00
2:53 PM,63.0,52.0,67,30.09,10.0,NNE,8.1,-,N/A,,Partly Cloudy,30,2012-10-07 19:53:00
3:53 PM,64.9,52.0,63,30.07,10.0,North,8.1,-,N/A,,Clear,350,2012-10-07 20:53:00
4:53 PM,63.0,52.0,67,30.07,10.0,Variable,4.6,-,N/A,,Partly Cloudy,0,2012-10-07 21:53:00
5:27 PM,60.8,51.8,72,30.08,10.0,North,10.4,18.4,N/A,,Mostly Cloudy,350,2012-10-07 22:27:00
5:53 PM,57.9,50.0,75,30.08,10.0,North,5.8,-,N/A,,Mostly Cloudy,360,2012-10-07 22:53:00
6:53 PM,57.9,50.0,75,30.10,10.0,NNE,11.5,-,N/A,,Overcast,20,2012-10-07 23:53:00
7:53 PM,57.0,50.0,77,30.12,10.0,North,4.6,-,N/A,,Mostly Cloudy,360,2012-10-08 00:53:00
8:07 PM,55.4,50.0,82,30.12,10.0,North,3.5,-,N/A,,Partly Cloudy,10,2012-10-08 01:07:00
8:53 PM,55.9,50.0,80,30.13,10.0,North,3.5,-,N/A,,Clear,10,2012-10-08 01:53:00
9:53 PM,54.0,50.0,86,30.14,10.0,Calm,Calm,-,N/A,,Clear,0,2012-10-08 02:53:00
10:53 PM,53.1,50.0,89,30.14,10.0,Calm,Calm,-,N/A,,Clear,0,2012-10-08 03:53:00
11:53 PM,53.1,50.0,89,30.12,10.0,Variable,3.5,-,N/A,,Clear,0,2012-10-08 04:53:00